Cloud_Cover
98 5 5 5 5 5 3 5 5 5 5 6 59 100 82 28 27 33 35 100 100 60 98 82 100 78 94 89 100 96 87 48 12
10 6 45 8 4 5 10 5 74 20 59 28 64 95 99 90 16 48 77 100 100 100 100 100 100 97 100 100 100 100 100 80 97
16 17 7 44 17 53 99 100 67 74 95 100 94 75 27 69 40 21 10 100 100 100 100 100 100 100 100 100 100 100 98 99 75
33 19 85 59 43 67 54 36 18 12 10 54 84 84 86 21 91 90 98 100 100 100 100 100 100 100 100 100 100 100 100 100 100
16 90 55 42 5 13 17 78 77 98 10 19 21 100 100 87 91 100 100 100 100 100 100 100 100 100 100 100 100 100 100 100 100
5 6 88 11 5 16 50 63 78 38 94 86 6 44 100 99 100 83 99 99 100 100 100 100 100 100 100 100 100 100 99 92 94
5 1 4 46 99 12 17 5 5 5 5 63 83 8 63 93 100 97 100 100 100 100 100 100 100 100 100 100 100 100 100 98 100
51 0 0 5 23 91 15 5 5 52 69 36 9 96 84 62 100 100 100 99 100 100 100 100 100 100 100 100 100 100 100 100 100
60 5 2 0 5 48 34 4 5 5 37 72 14 20 44 45 96 100 100 100 100 100 100 100 100 100 100 100 100 100 100 100 100
63 15 32 5 5 100 41 5 5 5 5 5 12 96 86 89 82 100 98 100 100 100 100 100 100 100 100 100 100 100 84 95 100
85 15 60 78 5 26 100 98 5 5 4 5 7 38 87 100 100 100 100 100 100 100 100 100 100 100 100 100 100 100 100 100 100
56 55 85 85 69 55 100 100 29 5 13 8 18 0 62 100 100 100 100 100 100 100 100 100 100 100 100 100 100 100 100 100 100
100 61 100 99 93 89 97 94 95 29 17 100 98 97 58 10 99 100 100 100 100 100 100 100 100 100 100 100 100 100 100 100 100
36 90 100 100 100 59 88 100 77 99 30 4 2 5 10 26 91 100 100 100 100 100 100 100 100 100 100 100 100 100 100 100 100
17 94 100 100 100 100 100 100 100 100 12 6 25 92 100 100 100 100 100 100 100 100 100 100 100 100 100 100 100 100 100 100 100
44 96 100 100 100 63 100 100 100 100 100 68 100 100 100 100 100 100 100 100 100 100 100 100 100 100 100 100 100 100 100 100 100
100 87 100 100 100 100 100 100 100 100 100 100 38 98 94 100 100 100 100 100 100 100 100 100 100 100 100 100 100 100 100 100 100
100 100 100 100 100 100 100 98 100 100 100 100 98 100 100 100 100 100 100 100 100 100 100 100 75 83 100 100 100 100 100 100 100
100 100 100 100 100 100 100 100 80 100 100 100 100 100 90 100 100 100 100 100 100 100 100 100 82 88 97 98 100 100 91 100 100
100 100 100 100 100 100 100 91 100 100 100 100 100 100 100 100 100 100 100 100 100 100 100 100 86 23 98 100 100 100 100 100 100